CE3TL-WX Weather Reports


time (UTC)temp
C
wind
direction
speed
KPH
gust
KPH
rain 1hr
cm
rain 24hr
cm
rain mn
cm
humidity
%
barometer
mb
20260507170320 13 0 6.4 12.9 0.00 0.00 0.00 70 1031.6
20260507165427 12 0 4.8 12.9 0.00 0.00 0.00 69 1031.7
20260507164532 12 0 3.2 12.9 0.00 0.00 0.00 70 1031.8
20260507163638 13 0 8.0 12.9 0.00 0.00 0.00 68 1031.8
20260507162744 12 0 8.0 12.9 0.00 0.00 0.00 73 1031.9
20260507161850 12 0 4.8 14.5 0.00 0.00 0.00 72 1032.1
20260507155137 12 0 1.6 9.7 0.00 0.00 0.00 75 1031.9
20260507154243 12 0 4.8 9.7 0.00 0.00 0.00 76 1032.1
20260507153349 12 0 4.8 9.7 0.00 0.00 0.00 76 1032.3
20260507152455 12 0 4.8 11.3 0.00 0.00 0.00 75 1032.0
20260507151600 12 0 4.8 11.3 0.00 0.00 0.00 74 1031.9
20260507150707 12 0 6.4 12.9 0.00 0.00 0.00 78 1032.0
20260507145813 11 0 6.4 12.9 0.00 0.00 0.00 81 1032.3
20260507144919 11 0 4.8 12.9 0.00 0.00 0.00 82 1032.4
20260507144026 11 0 3.2 12.9 0.00 0.00 0.00 83 1032.5
20260507143131 11 0 3.2 8.0 0.00 0.00 0.00 89 1032.7
20260507142236 10 0 3.2 6.4 0.00 0.00 0.00 92 1032.9
20260507141343 10 0 1.6 4.8 0.00 0.00 0.00 90 1032.7
20260507140449 10 0 1.6 6.4 0.00 0.00 0.00 89 1032.5
20260507135556 10 0 1.6 8.0 0.00 0.00 0.00 91 1032.4
20260507134702 10 0 3.2 9.7 0.00 0.00 0.00 95 1032.5
20260507133808 10 0 4.8 9.7 0.00 0.00 0.00 94 1032.5
20260507132914 10 0 4.8 6.4 0.00 0.00 0.00 95 1032.4
20260507132020 10 0 3.2 4.8 0.00 0.00 0.00 94 1032.2
20260507131126 10 0 1.6 3.2 0.00 0.00 0.00 94 1032.3
20260507130232 10 0 0.0 3.2 0.00 0.00 0.00 95 1032.4
20260507125337 10 0 0.0 4.8 0.00 0.00 0.00 96 1032.2
20260507124444 9 0 3.2 4.8 0.00 0.00 0.00 97 1032.0
20260507123550 9 0 1.6 3.2 0.00 0.00 0.00 97 1032.1
20260507122655 9 0 1.6 4.8 0.00 0.00 0.00 97 1032.1
20260507121801 9 0 1.6 6.4 0.00 0.00 0.00 98 1032.1
20260507120907 9 0 3.2 6.4 0.00 0.00 0.00 98 1032.1
20260507120014 9 0 1.6 3.2 0.00 0.00 0.00 99 1031.8
20260507115120 9 0 1.6 4.8 0.00 0.00 0.00 98 1031.5
20260507114225 9 0 1.6 4.8 0.00 0.00 0.00 99 1031.5
20260507113330 9 0 1.6 4.8 0.00 0.00 0.00 98 1031.4
20260507112437 9 0 1.6 4.8 0.00 0.00 0.00 98 1031.4
20260507111543 9 0 1.6 3.2 0.00 0.00 0.00 99 1031.4
20260507110649 9 0 0.0 4.8 0.00 0.00 0.00 99 1031.4
20260507105755 9 0 1.6 3.2 0.00 0.00 0.00 99 1031.3
20260507104900 9 0 1.6 3.2 0.00 0.00 0.00 99 1031.0
20260507104006 9 0 1.6 4.8 0.00 0.00 0.00 98 1030.9
20260507103113 9 0 1.6 4.8 0.00 0.00 0.00 99 1030.9
20260507102219 9 0 1.6 4.8 0.00 0.00 0.00 99 1030.7
20260507101324 9 0 1.6 4.8 0.00 0.00 0.00 99 1030.7
20260507100431 9 0 1.6 4.8 0.00 0.00 0.00 99 1030.7
20260507095537 9 0 1.6 4.8 0.00 0.00 0.00 99 1030.5
20260507094643 9 0 1.6 3.2 0.00 0.00 0.00 99 1030.4
20260507093749 8 0 0.0 4.8 0.00 0.00 0.00 99 1030.3
20260507092855 8 0 3.2 6.4 0.00 0.00 0.00 99 1030.3
20260507092001 9 0 1.6 6.4 0.00 0.00 0.00 99 1030.2
20260507091108 9 0 3.2 4.8 0.00 0.00 0.00 99 1030.0
20260507090214 8 0 3.2 6.4 0.00 0.00 0.00 98 1030.1
20260507085319 9 0 3.2 6.4 0.00 0.00 0.00 99 1030.1
20260507084424 8 0 3.2 6.4 0.00 0.00 0.00 99 1029.9
20260507083530 9 0 4.8 6.4 0.00 0.00 0.00 99 1029.9
20260507082636 9 0 3.2 6.4 0.00 0.00 0.00 99 1029.9
20260507081742 9 0 3.2 6.4 0.00 0.00 0.00 99 1029.8
20260507080848 9 0 1.6 4.8 0.00 0.00 0.00 99 1029.7
20260507075953 9 0 1.6 4.8 0.00 0.00 0.00 98 1029.7
20260507075100 9 0 1.6 4.8 0.00 0.00 0.00 99 1029.9
20260507074207 9 0 1.6 4.8 0.00 0.00 0.00 99 1029.8
20260507073313 9 0 1.6 3.2 0.00 0.00 0.00 98 1029.7
20260507072419 9 0 0.0 3.2 0.00 0.00 0.00 97 1029.5
20260507071525 9 0 1.6 4.8 0.00 0.00 0.00 97 1029.7
20260507070631 9 0 1.6 4.8 0.00 0.00 0.00 98 1029.7
20260507065737 9 0 3.2 4.8 0.00 0.00 0.00 98 1029.8
20260507064842 9 0 3.2 4.8 0.00 0.00 0.00 98 1029.9
20260507063948 9 0 3.2 6.4 0.00 0.00 0.00 99 1029.8
20260507063055 9 0 3.2 6.4 0.00 0.00 0.00 99 1029.7
20260507062201 9 0 3.2 8.0 0.00 0.00 0.00 99 1029.5
20260507061307 9 0 3.2 8.0 0.00 0.00 0.00 99 1029.6
20260507060414 9 0 3.2 9.7 0.00 0.00 0.00 99 1029.6
20260507055520 9 0 3.2 9.7 0.00 0.00 0.00 99 1029.7
20260507054628 9 0 3.2 9.7 0.00 0.00 0.00 99 1029.7
20260507053703 9 0 3.2 8.0 0.00 0.00 0.00 98 1029.6
20260507052808 9 0 3.2 8.0 0.00 0.00 0.00 97 1029.5
20260507051914 10 0 3.2 6.4 0.00 0.00 0.00 98 1029.3
20260507050943 10 0 3.2 4.8 0.00 0.00 0.00 99 1029.3
20260507050050 10 0 1.6 1.6 0.00 0.00 0.00 100 1029.3
20260507001852 11 0 1.6 6.4 0.00 0.00 0.00 100 1028.0
20260507000958 11 0 0.0 6.4 0.00 0.00 0.00 100 1028.0
20260506234258 11 0 4.8 11.3 0.00 0.00 0.00 99 1027.8
20260506233404 11 0 4.8 11.3 0.00 0.00 0.00 99 1027.7
20260506232509 11 0 4.8 11.3 0.00 0.00 0.00 98 1027.7
20260506231615 11 0 3.2 11.3 0.00 0.00 0.00 99 1027.6
20260506230721 11 0 4.8 8.0 0.00 0.00 0.00 99 1027.6
20260506225827 11 0 3.2 6.4 0.00 0.00 0.00 99 1027.5
20260506224933 11 0 0.0 12.9 0.00 0.00 0.00 100 1027.5
20260506224040 11 0 4.8 12.9 0.00 0.00 0.00 100 1027.4
20260506223145 11 0 4.8 16.1 0.00 0.00 0.00 100 1027.0
20260506222251 11 0 4.8 12.9 0.00 0.00 0.00 100 1027.0
20260506221357 11 0 4.8 12.9 0.00 0.00 0.00 100 1027.1
20260506220503 11 0 4.8 12.9 0.00 0.00 0.00 100 1026.9
20260506215609 11 0 4.8 19.3 0.00 0.00 0.00 100 1027.0
20260506214716 11 0 6.4 24.1 0.00 0.00 0.00 100 1026.8
20260506213822 11 0 11.3 24.1 0.00 0.00 0.00 100 1026.3
20260506212928 12 0 8.0 16.1 0.00 0.00 0.00 100 1026.2
20260506212034 12 0 3.2 8.0 0.00 0.00 0.00 100 1026.3
20260506211140 12 0 3.2 9.7 0.00 0.00 0.00 100 1026.1
20260506210247 12 0 4.8 9.7 0.00 0.00 0.00 100 1026.2
20260506205353 12 0 4.8 9.7 0.00 0.00 0.00 100 1025.8
20260506204458 12 0 3.2 9.7 0.00 0.00 0.00 100 1025.9
20260506203604 12 0 3.2 9.7 0.00 0.00 0.00 99 1025.8
20260506202711 12 0 1.6 9.7 0.00 0.00 0.00 98 1026.1
20260506201817 12 0 1.6 9.7 0.00 0.00 0.00 98 1025.8
20260506200923 12 0 3.2 11.3 0.00 0.00 0.00 97 1025.9
20260506200030 12 0 6.4 11.3 0.00 0.00 0.00 97 1025.9
20260506195135 13 0 3.2 11.3 0.00 0.00 0.00 91 1025.8
20260506194241 13 0 4.8 12.9 0.00 0.00 0.00 85 1025.5
20260506193348 13 0 6.4 11.3 0.00 0.00 0.00 86 1025.7
20260506192454 13 0 6.4 14.5 0.00 0.00 0.00 85 1025.8
20260506191601 13 0 4.8 14.5 0.00 0.00 0.00 84 1025.8
20260506190706 13 0 3.2 16.1 0.00 0.00 0.00 82 1025.9
20260506185813 13 0 6.4 14.5 0.00 0.00 0.00 81 1025.9
20260506184919 13 0 6.4 12.9 0.00 0.00 0.00 80 1025.7
20260506184025 13 0 6.4 11.3 0.00 0.00 0.00 81 1025.7
20260506183130 13 0 4.8 9.7 0.00 0.00 0.00 84 1025.9
20260506182236 13 0 4.8 9.7 0.00 0.00 0.00 84 1025.9
20260506181343 13 0 6.4 9.7 0.00 0.00 0.00 84 1025.8
20260506180449 13 0 3.2 9.7 0.00 0.00 0.00 84 1026.0
20260506175555 13 0 4.8 9.7 0.00 0.00 0.00 83 1026.0
20260506174701 13 0 4.8 12.9 0.00 0.00 0.00 82 1026.1
20260506173808 13 0 6.4 12.9 0.00 0.00 0.00 78 1025.6
20260506172914 13 0 6.4 11.3 0.00 0.00 0.00 78 1025.8
20260506172020 13 0 8.0 14.5 0.00 0.00 0.00 78 1025.8
20260506171125 13 0 8.0 14.5 0.00 0.00 0.00 76 1025.8